DR0T Weather Reports


Display with metric or nautical units.
time (UTC)temp
F
wind
direction
speed
MPH
gust
MPH
rain 1hr
in
rain 24hr
in
rain mn
in
humidity
%
barometer
mb
20260503012721 61 0.0 0.0 0.00 0.00 0.00 49 1017.1
20260503012221 61 0.0 0.0 0.00 0.00 0.00 49 1017.0
20260503011718 61 0.0 0.0 0.00 0.00 0.00 49 1017.1
20260503011219 61 0.0 0.0 0.00 0.00 0.00 49 1017.1
20260503010716 60 0.0 0.0 0.00 0.00 0.00 51 1017.2
20260503010236 59 0.0 0.0 0.00 0.00 0.00 52 1017.1
20260503005735 60 0.0 0.0 0.00 0.00 0.00 52 1017.2
20260503005231 60 0.0 0.0 0.00 0.00 0.00 51 1017.2
20260503004730 61 0.0 0.0 0.00 0.00 0.00 48 1017.2
20260503004229 62 0.0 0.0 0.00 0.00 0.00 46 1017.3
20260503003728 62 0.0 0.0 0.00 0.00 0.00 45 1017.3
20260503003228 61 0.0 0.0 0.00 0.00 0.00 47 1017.3
20260503002725 62 0.0 0.0 0.00 0.00 0.00 47 1017.4
20260503002223 64 0.0 0.0 0.00 0.00 0.00 45 1017.3
20260503001726 65 0.0 0.0 0.00 0.00 0.00 42 1017.3
20260503001221 65 103 1.0 2.0 0.00 0.00 0.00 41 1017.4
20260503000719 64 103 1.0 2.0 0.00 0.00 0.00 42 1017.4
20260503000218 63 0.0 0.0 0.00 0.00 0.00 43 1017.5
20260502235720 64 0.0 0.0 0.00 0.00 0.00 42 1017.6
20260502235235 64 0.0 0.0 0.00 0.00 0.00 42 1017.6
20260502234738 65 103 0.0 1.0 0.00 0.00 0.00 41 1017.5
20260502234233 65 103 0.0 2.0 0.00 0.00 0.00 41 1017.7
20260502233731 65 103 0.0 1.0 0.00 0.00 0.00 40 1017.7
20260502233229 65 103 1.0 2.0 0.00 0.00 0.00 40 1017.8
20260502232728 65 103 1.0 2.0 0.00 0.00 0.00 40 1017.7
20260502232230 65 0.0 0.0 0.00 0.00 0.00 40 1017.8
20260502231729 64 0.0 0.0 0.00 0.00 0.00 40 1017.8
20260502231224 64 0.0 0.0 0.00 0.00 0.00 40 1017.9
20260502230724 64 0.0 0.0 0.00 0.00 0.00 40 1017.7
20260502230220 64 0.0 0.0 0.00 0.00 0.00 40 1017.8
20260502225719 65 103 0.0 1.0 0.00 0.00 0.00 40 1017.9
20260502225219 65 103 1.0 1.0 0.00 0.00 0.00 40 1017.9
20260502224716 65 103 1.0 2.0 0.00 0.00 0.00 39 1017.9
20260502224237 65 0.0 0.0 0.00 0.00 0.00 39 1018.0
20260502223734 65 103 1.0 2.0 0.00 0.00 0.00 39 1018.0
20260502223233 65 103 1.0 2.0 0.00 0.00 0.00 39 1018.0
20260502222731 65 103 2.0 2.0 0.00 0.00 0.00 39 1018.0
20260502222229 65 103 2.0 3.0 0.00 0.00 0.00 40 1018.0
20260502221728 65 103 2.0 3.0 0.00 0.00 0.00 40 1018.0
20260502221229 65 103 1.0 2.0 0.00 0.00 0.00 41 1017.9
20260502220730 65 103 1.0 3.0 0.00 0.00 0.00 41 1018.1
20260502220224 65 103 1.0 2.0 0.00 0.00 0.00 41 1018.0
20260502215725 65 103 1.0 2.0 0.00 0.00 0.00 41 1018.1
20260502215222 65 103 1.0 2.0 0.00 0.00 0.00 41 1018.2
20260502214720 66 103 2.0 3.0 0.00 0.00 0.00 40 1018.1
20260502214219 66 103 3.0 3.0 0.00 0.00 0.00 40 1018.1
20260502213717 66 103 2.0 3.0 0.00 0.00 0.00 40 1018.1
20260502213216 66 103 2.0 3.0 0.00 0.00 0.00 40 1018.2
20260502212735 66 103 2.0 3.0 0.00 0.00 0.00 40 1018.1
20260502212235 66 104 2.0 3.0 0.00 0.00 0.00 40 1018.2
20260502211736 66 105 2.0 3.0 0.00 0.00 0.00 40 1018.1
20260502211231 66 103 2.0 3.0 0.00 0.00 0.00 40 1018.2
20260502210729 66 104 2.0 3.0 0.00 0.00 0.00 40 1018.3
20260502210229 66 101 3.0 3.0 0.00 0.00 0.00 40 1018.2
20260502205729 66 100 2.0 3.0 0.00 0.00 0.00 40 1018.3
20260502205227 66 98 3.0 3.0 0.00 0.00 0.00 40 1018.4
20260502204724 66 99 3.0 4.0 0.00 0.00 0.00 40 1018.4
20260502204226 66 98 3.0 4.0 0.00 0.00 0.00 40 1018.3
20260502203721 66 97 3.0 4.0 0.00 0.00 0.00 40 1018.4
20260502203222 66 101 3.0 3.0 0.00 0.00 0.00 40 1018.4
20260502202718 66 100 3.0 3.0 0.00 0.00 0.00 40 1018.5
20260502202217 66 97 3.0 4.0 0.00 0.00 0.00 40 1018.5
20260502201716 66 98 3.0 4.0 0.00 0.00 0.00 40 1018.5
20260502201235 66 99 3.0 4.0 0.00 0.00 0.00 40 1018.5
20260502200733 66 98 3.0 3.0 0.00 0.00 0.00 40 1018.6
20260502200238 66 98 3.0 4.0 0.00 0.00 0.00 40 1018.6
20260502195228 66 98 3.0 4.0 0.00 0.00 0.00 41 1018.6
20260502194726 66 98 3.0 4.0 0.00 0.00 0.00 41 1018.6
20260502194229 67 100 3.0 3.0 0.00 0.00 0.00 41 1018.5
20260502193723 66 101 3.0 3.0 0.00 0.00 0.00 42 1018.6
20260502193222 66 105 2.0 3.0 0.00 0.00 0.00 42 1018.6
20260502192720 66 97 2.0 3.0 0.00 0.00 0.00 42 1018.6
20260502192222 66 103 3.0 4.0 0.00 0.00 0.00 42 1018.5
20260502191719 67 95 2.0 4.0 0.00 0.00 0.00 42 1018.6
20260502191215 67 95 2.0 3.0 0.00 0.00 0.00 41 1018.4
20260502190734 67 111 2.0 3.0 0.00 0.00 0.00 41 1018.6
20260502190233 66 100 2.0 3.0 0.00 0.00 0.00 42 1018.6
20260502185738 67 104 3.0 4.0 0.00 0.00 0.00 43 1018.6
20260502185231 67 99 3.0 4.0 0.00 0.00 0.00 43 1018.6
20260502184729 67 99 3.0 4.0 0.00 0.00 0.00 43 1018.5
20260502184227 67 105 2.0 3.0 0.00 0.00 0.00 44 1018.4
20260502183726 67 105 2.0 3.0 0.00 0.00 0.00 44 1018.5
20260502183228 67 114 2.0 3.0 0.00 0.00 0.00 43 1018.4
20260502182724 68 109 2.0 3.0 0.00 0.00 0.00 43 1018.5
20260502182221 68 116 2.0 3.0 0.00 0.00 0.00 43 1018.5
20260502181720 68 125 2.0 3.0 0.00 0.00 0.00 42 1018.5
20260502181219 68 111 2.0 4.0 0.00 0.00 0.00 42 1018.4
20260502180716 68 112 2.0 4.0 0.00 0.00 0.00 43 1018.4
20260502180217 68 106 2.0 3.0 0.00 0.00 0.00 43 1018.4
20260502170220 71 132 1.0 3.0 0.00 0.00 0.00 42 1018.7
20260502164234 72 110 2.0 6.0 0.00 0.00 0.00 43 1018.8
20260502163738 71 127 2.0 6.0 0.00 0.00 0.00 42 1018.9
20260502163230 71 105 2.0 4.0 0.00 0.00 0.00 42 1018.9
20260502162729 71 112 3.0 6.0 0.00 0.00 0.00 41 1018.9
20260502162228 72 114 3.0 6.0 0.00 0.00 0.00 42 1019.0
20260502161726 72 117 2.0 4.0 0.00 0.00 0.00 42 1019.1
20260502161225 72 106 1.0 3.0 0.00 0.00 0.00 40 1019.2
20260502160730 72 106 2.0 7.0 0.00 0.00 0.00 42 1019.3
20260502160222 72 108 3.0 6.0 0.00 0.00 0.00 41 1019.3
20260502152232 74 198 2.0 3.0 0.00 0.00 0.00 38 1019.7
20260502151731 75 186 2.0 6.0 0.00 0.00 0.00 37 1019.8
20260502151229 74 163 0.0 2.0 0.00 0.00 0.00 37 1020.0
20260502150732 76 183 2.0 3.0 0.00 0.00 0.00 36 1019.9
20260502150227 77 142 1.0 3.0 0.00 0.00 0.00 35 1020.0
20260502130735 73 201 4.0 7.0 0.00 0.00 0.00 36 1021.4
20260502130233 74 189 2.0 4.0 0.00 0.00 0.00 37 1021.5
20260502123727 72 103 1.0 6.0 0.00 0.00 0.00 37 1021.5
20260502123229 72 112 2.0 4.0 0.00 0.00 0.00 38 1021.7
20260502122726 71 195 1.0 3.0 0.00 0.00 0.00 38 1021.7
20260502122223 72 192 3.0 6.0 0.00 0.00 0.00 38 1021.6
20260502121721 71 116 1.0 3.0 0.00 0.00 0.00 37 1021.8
20260502121220 71 165 2.0 3.0 0.00 0.00 0.00 37 1021.8
20260502120723 71 143 1.0 4.0 0.00 0.00 0.00 38 1021.9
20260502120218 71 127 2.0 6.0 0.00 0.00 0.00 39 1021.9
20260502115716 70 120 1.0 3.0 0.00 0.00 0.00 38 1022.0
20260502115235 69 111 1.0 2.0 0.00 0.00 0.00 39 1022.0
20260502114733 70 112 3.0 6.0 0.00 0.00 0.00 39 1022.1
20260502114234 69 124 1.0 7.0 0.00 0.00 0.00 41 1022.1
20260502113731 70 105 2.0 6.0 0.00 0.00 0.00 40 1022.3
20260502113230 70 132 2.0 4.0 0.00 0.00 0.00 41 1022.3
20260502112728 69 172 0.0 2.0 0.00 0.00 0.00 41 1022.3
20260502112231 68 168 1.0 2.0 0.00 0.00 0.00 42 1022.5
20260502111725 67 180 1.0 2.0 0.00 0.00 0.00 41 1022.5
20260502111224 68 184 2.0 4.0 0.00 0.00 0.00 41 1022.5
20260502110723 68 184 1.0 4.0 0.00 0.00 0.00 40 1022.6
20260502110222 69 100 0.0 2.0 0.00 0.00 0.00 40 1022.6
20260502105721 69 103 0.0 2.0 0.00 0.00 0.00 41 1022.7
20260502105221 68 107 1.0 6.0 0.00 0.00 0.00 42 1022.8
20260502104717 68 124 2.0 6.0 0.00 0.00 0.00 41 1022.8
20260502104216 67 123 1.0 4.0 0.00 0.00 0.00 41 1022.9
20260502103734 66 168 1.0 3.0 0.00 0.00 0.00 42 1022.8
20260502103235 67 186 3.0 6.0 0.00 0.00 0.00 42 1023.0
20260502102731 66 178 1.0 3.0 0.00 0.00 0.00 43 1022.9
20260502102230 66 184 2.0 4.0 0.00 0.00 0.00 42 1022.9
20260502101728 66 183 0.0 1.0 0.00 0.00 0.00 41 1022.9
20260502101231 66 184 1.0 3.0 0.00 0.00 0.00 43 1023.1
20260502100730 65 183 1.0 3.0 0.00 0.00 0.00 43 1023.1
20260502100223 66 183 2.0 4.0 0.00 0.00 0.00 43 1023.2
20260502091228 63 184 3.0 4.0 0.00 0.00 0.00 48 1023.6
20260502090231 62 0.0 0.0 0.00 0.00 0.00 47 1023.5
20260502071218 61 107 1.0 3.0 0.00 0.00 0.00 46 1023.6
20260502070717 61 158 1.0 2.0 0.00 0.00 0.00 48 1023.6
20260502070235 61 125 1.0 3.0 0.00 0.00 0.00 48 1023.6
20260502065736 60 119 2.0 4.0 0.00 0.00 0.00 49 1023.6
20260502065232 60 107 3.0 7.0 0.00 0.00 0.00 50 1023.6
20260502064733 60 108 3.0 6.0 0.00 0.00 0.00 50 1023.6
20260502064229 59 119 3.0 4.0 0.00 0.00 0.00 50 1023.6
20260502063728 59 105 3.0 7.0 0.00 0.00 0.00 52 1023.5
20260502063227 59 99 4.0 7.0 0.00 0.00 0.00 51 1023.5
20260502062727 59 100 3.0 6.0 0.00 0.00 0.00 52 1023.4
20260502062224 59 96 4.0 6.0 0.00 0.00 0.00 51 1023.5
20260502061725 59 98 3.0 6.0 0.00 0.00 0.00 51 1023.6
20260502061222 59 107 2.0 4.0 0.00 0.00 0.00 52 1023.6
20260502060721 58 97 3.0 7.0 0.00 0.00 0.00 54 1023.6
20260502060219 57 100 4.0 8.0 0.00 0.00 0.00 53 1023.5
20260502055718 56 97 4.0 7.0 0.00 0.00 0.00 54 1023.6
20260502055219 56 97 4.0 8.0 0.00 0.00 0.00 54 1023.5
20260502054716 56 103 3.0 6.0 0.00 0.00 0.00 54 1023.7
20260502054234 56 102 3.0 7.0 0.00 0.00 0.00 54 1023.6
20260502053733 55 97 2.0 6.0 0.00 0.00 0.00 55 1023.7
20260502053238 55 96 3.0 8.0 0.00 0.00 0.00 55 1023.5
20260502052731 55 96 4.0 7.0 0.00 0.00 0.00 55 1023.6
20260502052230 55 98 3.0 9.0 0.00 0.00 0.00 56 1023.5
20260502051728 54 95 2.0 8.0 0.00 0.00 0.00 56 1023.5
20260502051230 54 94 2.0 6.0 0.00 0.00 0.00 56 1023.5
20260502050731 54 95 2.0 6.0 0.00 0.00 0.00 56 1023.6
20260502050224 54 92 2.0 6.0 0.00 0.00 0.00 55 1023.6
20260502045727 55 93 3.0 6.0 0.00 0.00 0.00 54 1023.7
20260502045226 54 97 3.0 4.0 0.00 0.00 0.00 53 1023.7
20260502044724 54 98 3.0 4.0 0.00 0.00 0.00 53 1023.6
20260502044219 54 105 1.0 3.0 0.00 0.00 0.00 54 1023.7
20260502043720 54 99 2.0 3.0 0.00 0.00 0.00 53 1023.7
20260502043217 54 95 3.0 4.0 0.00 0.00 0.00 53 1023.6
20260502042715 54 99 3.0 6.0 0.00 0.00 0.00 54 1023.6
20260502042234 54 96 4.0 7.0 0.00 0.00 0.00 53 1023.7
20260502041731 54 95 5.0 8.0 0.00 0.00 0.00 52 1023.8
20260502041232 54 94 4.0 6.0 0.00 0.00 0.00 53 1023.8
20260502040732 55 97 3.0 6.0 0.00 0.00 0.00 52 1023.9
20260502040227 55 109 3.0 4.0 0.00 0.00 0.00 51 1023.8
20260502035725 55 97 3.0 4.0 0.00 0.00 0.00 51 1023.9
20260502035224 55 107 3.0 6.0 0.00 0.00 0.00 51 1023.8
20260502034723 55 117 3.0 6.0 0.00 0.00 0.00 51 1023.9
20260502034226 55 104 3.0 6.0 0.00 0.00 0.00 51 1023.8
20260502033724 55 114 3.0 8.0 0.00 0.00 0.00 51 1023.9
20260502033219 54 112 4.0 8.0 0.00 0.00 0.00 51 1023.9
20260502032717 54 108 4.0 7.0 0.00 0.00 0.00 53 1023.9
20260502032216 54 103 3.0 6.0 0.00 0.00 0.00 52 1023.9
20260502031735 54 91 3.0 6.0 0.00 0.00 0.00 53 1023.9
20260502031238 54 101 3.0 7.0 0.00 0.00 0.00 52 1023.9
20260502030732 54 106 3.0 6.0 0.00 0.00 0.00 52 1023.8
20260502030232 54 101 4.0 11.0 0.00 0.00 0.00 52 1023.8
20260502025730 54 91 5.0 8.0 0.00 0.00 0.00 52 1023.8
20260502025229 55 96 4.0 9.0 0.00 0.00 0.00 52 1023.9
20260502024728 55 88 4.0 8.0 0.00 0.00 0.00 52 1023.7
20260502024236 55 96 5.0 8.0 0.00 0.00 0.00 51 1023.9
20260502023725 55 89 5.0 8.0 0.00 0.00 0.00 51 1023.9
20260502023224 55 96 6.0 9.0 0.00 0.00 0.00 51 1023.9
20260502022725 55 100 6.0 9.0 0.00 0.00 0.00 51 1023.8
20260502022221 55 101 6.0 10.0 0.00 0.00 0.00 51 1023.8
20260502021719 55 86 6.0 10.0 0.00 0.00 0.00 50 1023.9
20260502021218 55 94 7.0 11.0 0.00 0.00 0.00 51 1023.9
20260502020716 55 99 7.0 10.0 0.00 0.00 0.00 51 1023.9
20260502020237 55 107 6.0 9.0 0.00 0.00 0.00 50 1023.9
20260502015733 55 88 6.0 10.0 0.00 0.00 0.00 50 1023.9
20260502015236 55 96 6.0 11.0 0.00 0.00 0.00 51 1024.0
20260502014730 55 97 6.0 9.0 0.00 0.00 0.00 50 1024.0
20260502014233 56 101 7.0 9.0 0.00 0.00 0.00 50 1024.2
20260502013727 56 101 6.0 11.0 0.00 0.00 0.00 50 1024.1
20260502013226 56 93 7.0 10.0 0.00 0.00 0.00 50 1024.1